This is the latest recevied weather packets stored in our database for station/object KE0PRS. If no packets are shown the sender has not sent any weather packets the latest 10 day(s).
| Time | Temp. | Humidity | Pressure | Rain* | Wind** | Luminosity | Snow |
|---|---|---|---|---|---|---|---|
| 1787367626 | 28.89° C | 55% | 1018.1 hPa | 0 mm | - | 0 W/m² | - |
| 1787367324 | 28.89° C | 54% | 1018 hPa | 0 mm | - | 0 W/m² | - |
| 1787367024 | 29.44° C | 53% | 1018.1 hPa | 0 mm | - | 0 W/m² | - |
| 1787366724 | 29.44° C | 52% | 1017.8 hPa | 0 mm | - | 0 W/m² | - |
| 1787366418 | 30° C | 50% | 1018 hPa | 0 mm | - | 0 W/m² | - |
| 1787366114 | 30° C | 49% | 1017.9 hPa | 0 mm | - | 0 W/m² | - |
| 1787365811 | 30.56° C | 49% | 1017.8 hPa | 0 mm | - | 0 W/m² | - |
| 1787365510 | 30.56° C | 48% | 1017.7 hPa | 0 mm | - | 0 W/m² | - |
| 1787365205 | 30.56° C | 48% | 1017.6 hPa | 0 mm | - | 0 W/m² | - |
| 1787364900 | 30.56° C | 48% | 1017.6 hPa | 0 mm | - | 0 W/m² | - |
| 1787364597 | 30.56° C | 47% | 1017.5 hPa | 0 mm | - | 0 W/m² | - |
| 1787364292 | 31.11° C | 46% | 1017.6 hPa | 0 mm | - | 0 W/m² | - |
| 1787363987 | 31.11° C | 46% | 1017.6 hPa | 0 mm | - | 0 W/m² | - |
| 1787363686 | 31.67° C | 45% | 1017.5 hPa | 0 mm | - | 0 W/m² | - |
| 1787363382 | 31.67° C | 45% | 1017.2 hPa | 0 mm | - | 0 W/m² | - |
| 1787363076 | 31.67° C | 44% | 1017.3 hPa | 0 mm | - | 0 W/m² | - |
| 1787362772 | 31.67° C | 44% | 1016.9 hPa | 0 mm | - | 0 W/m² | - |
| 1787362467 | 31.67° C | 44% | 1017 hPa | 0 mm | - | 1 W/m² | - |
| 1787362162 | 32.22° C | 43% | 1016.9 hPa | 0 mm | - | 1 W/m² | - |
| 1787361861 | 32.78° C | 42% | 1016.9 hPa | 0 mm | - | 2 W/m² | - |
| 1787361556 | 32.78° C | 42% | 1016.9 hPa | 0 mm | - | 4 W/m² | - |
| 1787361255 | 32.78° C | 41% | 1016.8 hPa | 0 mm | - | 7 W/m² | - |
| 1787360952 | 33.33° C | 40% | 1016.8 hPa | 0 mm | - | 12 W/m² | - |
| 1787360652 | 33.89° C | 39% | 1016.9 hPa | 0 mm | - | 18 W/m² | - |
| 1787360351 | 33.89° C | 38% | 1016.8 hPa | 0 mm | - | 20 W/m² | - |
* Rain latest hour (hover to see other rain measurements)
** Current wind speed in m/s (hover to see current wind gust speed)